Wind_Speed
13 12 12 13 12 11 11 10 9 9 9 10 10 9 9 9 9 11 6 3 5 9 10 9 8 8 3 1 1 1 1 3 2 4 7 8 5 5 8 13 3 2 14 17 23
13 14 14 13 14 13 13 12 11 10 9 9 11 11 10 10 8 10 6 6 5 6 12 9 7 8 1 1 2 1 2 2 2 8 9 6 4 10 8 5 7 16 18 24 23
14 14 13 13 14 14 15 15 13 11 10 10 10 11 9 8 6 4 6 7 8 10 10 9 5 6 3 2 2 2 2 5 4 12 15 11 6 3 13 4 7 25 26 24 22
15 14 14 14 14 14 15 15 14 12 11 10 10 10 9 5 4 4 4 11 15 16 15 11 5 4 1 2 5 2 5 1 8 9 8 6 11 9 6 4 11 24 26 23 21
16 16 15 15 15 15 16 15 14 12 11 9 9 8 7 6 6 8 5 15 19 19 16 13 8 3 2 2 4 5 2 3 8 9 10 8 7 6 6 10 21 24 23 22 19
18 17 17 16 16 16 17 16 14 12 11 9 8 7 6 6 8 11 8 10 16 17 17 14 4 2 7 4 1 5 8 9 8 8 8 7 4 2 4 12 21 26 23 21 18
18 18 17 16 15 17 17 15 13 10 9 9 7 7 8 12 9 14 14 12 13 18 15 13 10 5 2 1 7 11 8 6 6 5 4 7 4 5 12 16 20 24 22 21 19
18 18 17 16 14 16 15 15 11 7 6 6 6 6 8 8 20 11 14 14 16 17 17 7 9 4 4 10 4 3 3 3 5 6 3 3 1 8 16 18 18 21 21 21 20
18 18 17 16 13 14 14 11 9 6 1 3 5 4 6 6 9 17 19 15 15 15 14 10 5 4 6 5 3 2 3 4 3 9 4 9 1 5 16 17 16 19 21 21 21
17 16 15 14 12 10 13 8 7 3 2 4 6 4 6 2 1 6 10 18 8 16 10 7 4 5 4 8 6 5 4 3 3 7 9 8 9 3 15 18 18 20 21 22 22
17 15 13 12 10 7 11 6 7 3 12 7 7 10 18 11 9 6 6 16 15 12 11 10 8 12 17 14 6 6 6 2 1 3 8 11 10 11 15 19 21 22 22 25 24
21 17 13 10 6 4 7 7 9 7 10 15 18 23 24 19 6 6 9 13 15 13 10 7 15 16 13 10 9 7 5 3 2 4 6 4 11 10 17 22 23 23 25 24 25
21 18 14 10 3 2 3 8 10 10 4 8 6 6 5 9 10 12 13 9 14 17 19 16 14 11 12 11 10 8 9 5 1 5 5 4 6 9 11 18 20 23 24 25 26
19 17 14 9 3 4 2 7 10 8 3 4 3 2 3 3 6 17 14 11 6 20 14 12 10 16 14 16 12 14 9 5 6 4 3 3 3 6 13 16 21 27 27 29 28
17 15 14 10 4 2 1 7 7 2 4 13 3 3 11 6 7 2 19 10 14 9 11 12 14 14 18 20 14 11 9 7 5 3 3 4 4 1 9 16 21 30 31 32 33
14 14 14 10 7 3 4 6 2 1 3 6 7 7 9 3 3 3 9 7 6 7 5 9 3 13 14 9 15 9 7 6 4 2 9 4 7 5 7 15 20 27 32 32 32
10 13 13 11 7 8 7 2 1 1 6 8 8 11 6 4 1 1 7 11 10 14 14 9 8 3 4 15 4 10 12 8 7 6 10 2 5 12 7 9 15 27 37 36 34
5 10 11 12 11 13 6 1 5 6 4 7 7 11 5 9 2 3 4 10 2 6 8 14 13 12 7 10 13 16 16 9 12 10 11 2 7 3 3 9 10 19 31 34 36
4 6 9 10 12 13 3 5 4 5 8 8 11 5 6 6 6 0 3 4 2 4 10 10 17 2 8 6 12 9 11 11 6 1 6 4 5 11 8 4 9 14 18 29 35
3 4 11 11 14 9 4 4 1 6 8 2 5 6 6 10 10 6 2 8 8 3 5 6 7 7 8 7 5 10 12 10 7 15 15 9 6 8 7 4 3 8 21 27 34
2 2 8 9 9 7 3 2 1 7 10 7 4 4 5 6 5 6 6 3 10 6 3 6 4 3 6 15 18 8 9 7 10 8 14 11 9 5 9 7 10 9 15 23 29
3 2 9 4 4 3 2 3 7 8 12 6 2 5 4 6 5 5 5 4 17 6 1 1 7 9 11 2 6 18 19 18 11 12 8 11 16 3 5 6 6 5 6 15 22
3 2 9 3 2 2 2 2 5 8 6 7 6 5 5 4 5 4 5 3 15 8 6 2 4 9 8 5 4 12 13 17 8 9 19 15 11 3 2 4 5 1 1 10 17
2 0 6 10 6 2 2 3 3 4 3 4 5 1 6 3 1 6 8 3 15 10 9 5 2 9 13 15 9 6 16 15 18 12 13 14 18 10 6 5 6 4 5 4 12
5 3 3 3 6 6 2 2 4 6 4 9 2 7 5 4 6 3 4 9 6 11 9 4 3 4 6 5 7 9 12 15 19 21 19 18 19 15 10 1 5 4 6 8 8
4 2 3 2 2 2 3 1 3 5 3 4 6 7 5 4 7 11 8 4 4 8 8 8 1 2 4 4 11 7 5 11 13 7 12 8 17 3 5 9 8 6 7 7 6
7 5 2 3 2 1 1 1 2 2 2 4 5 5 7 6 14 18 18 21 21 12 6 6 5 4 4 7 10 7 4 5 7 5 5 11 2 2 8 9 8 9 10 10 7
Wind_Direction
14 12 9 5 1 352 340 325 309 291 282 275 276 277 280 282 290 299 328 154 177 154 153 145 142 146 118 8 33 141 99 89 91 141 101 126 129 70 108 123 96 133 152 153 153
10 7 4 2 358 353 346 336 320 303 289 275 270 272 273 280 285 286 274 187 189 144 158 149 141 162 116 229 233 202 53 100 163 129 126 125 124 123 141 114 84 109 129 147 152
6 3 360 356 354 351 347 339 328 314 299 283 268 265 268 277 294 248 236 191 185 160 163 187 138 136 169 206 234 176 239 133 139 128 124 126 107 142 151 80 158 147 147 154 156
360 356 354 351 349 347 344 337 327 318 306 292 279 264 254 242 215 177 206 184 173 174 171 189 187 144 237 221 189 231 249 177 148 145 129 118 130 125 137 150 151 152 153 158 161
355 353 350 348 346 344 341 334 325 313 306 294 286 276 247 220 221 181 96 157 172 180 182 187 202 196 271 304 169 217 122 101 143 143 115 121 118 128 118 138 150 155 160 165 169
354 352 348 345 345 342 338 330 322 311 302 294 284 284 241 225 226 199 190 160 176 188 182 199 210 249 296 5 225 161 135 112 108 139 145 146 151 79 176 152 156 163 170 172 180
350 350 349 345 344 343 338 332 327 312 297 288 277 279 258 239 233 214 208 204 202 198 201 216 224 264 296 73 117 125 117 107 130 158 166 157 161 209 160 159 162 171 176 180 187
348 348 349 347 345 346 340 340 342 329 293 272 265 278 252 231 226 210 199 196 193 197 209 211 214 234 255 127 129 106 123 192 157 182 160 203 256 158 167 162 172 179 183 187 193
342 344 347 348 348 350 346 346 352 1 310 252 261 250 259 245 242 226 217 216 213 197 186 157 164 195 174 164 186 179 168 214 175 206 167 212 251 144 169 178 179 187 191 194 197
343 340 342 347 350 354 354 341 345 3 14 295 261 273 257 173 38 200 210 207 190 186 197 210 190 192 177 186 205 179 189 186 233 195 208 209 232 165 188 189 192 193 197 198 202
352 350 346 347 352 358 6 347 351 344 315 254 261 262 284 293 296 219 199 184 180 164 180 184 194 193 193 206 225 160 151 206 168 182 205 224 243 232 198 202 196 198 199 201 203
2 2 355 349 352 30 37 58 34 320 304 298 276 265 261 266 295 239 194 173 181 187 164 168 210 204 194 176 202 192 180 190 127 173 222 236 252 229 205 207 205 195 201 207 206
359 5 3 356 18 37 45 29 359 345 287 300 305 287 306 229 228 237 188 185 187 192 189 196 199 177 175 184 190 209 212 175 329 168 233 279 254 188 209 211 208 213 210 212 211
359 360 4 2 74 14 104 353 337 337 323 300 347 354 337 214 247 238 207 186 186 202 187 212 189 180 193 197 196 220 185 175 149 200 323 222 304 216 195 201 210 214 211 209 213
357 3 6 10 10 56 340 337 323 352 310 341 333 351 328 219 320 213 195 193 206 171 186 193 190 183 201 202 193 221 171 197 157 186 275 196 260 189 191 207 210 212 213 213 210
10 26 20 22 30 37 330 333 123 248 283 337 330 338 341 224 266 326 192 200 151 157 199 200 185 207 199 187 191 161 122 87 88 187 259 242 237 250 194 219 213 210 211 215 212
47 32 35 42 29 5 343 330 193 351 342 349 334 330 325 315 311 281 188 183 186 185 194 183 188 178 161 194 178 190 190 218 227 219 239 69 229 259 240 229 214 202 207 208 211
76 50 51 45 28 9 10 51 55 342 337 330 326 320 347 355 14 338 165 190 84 195 185 200 208 191 162 215 197 205 206 215 216 221 240 128 242 237 275 253 224 214 212 209 208
97 61 29 14 4 1 58 59 29 343 325 317 315 340 355 356 332 334 67 203 231 202 210 197 222 208 207 179 184 186 209 216 228 305 238 220 254 270 272 257 233 225 207 204 201
142 94 20 7 2 32 68 100 122 358 324 276 356 16 343 344 360 4 69 25 354 8 309 186 205 208 185 184 191 219 176 190 207 213 223 220 254 241 255 338 276 234 217 206 203
110 107 8 3 14 38 58 57 333 3 12 2 14 339 341 340 322 356 10 56 354 330 284 157 232 153 167 202 200 178 195 213 224 233 221 230 240 208 257 311 296 270 225 207 198
74 72 0 359 32 59 46 8 5 357 8 11 27 352 334 331 322 334 356 31 3 341 318 168 210 214 200 107 283 215 210 205 210 193 229 240 241 92 303 301 303 296 215 198 203
71 61 23 84 57 63 85 65 42 9 12 8 7 8 354 326 320 355 338 14 5 21 350 28 214 197 216 190 160 213 201 203 204 215 217 222 228 9 1 18 39 7 143 184 191
50 136 31 57 67 48 47 32 10 18 31 350 3 331 343 317 315 311 327 321 339 359 358 218 209 235 216 228 192 188 203 214 220 222 213 223 241 230 275 2 34 37 42 87 184
48 64 34 30 57 75 84 31 2 5 19 11 29 18 354 305 315 314 336 322 327 6 7 23 255 215 256 224 188 207 199 193 212 226 229 233 240 250 285 200 87 75 78 86 99
65 38 60 73 35 75 22 63 351 354 317 351 337 334 321 293 308 302 325 319 307 333 354 353 338 301 233 196 197 172 191 204 218 208 221 237 249 6 87 106 88 91 90 82 73
46 45 50 5 64 213 90 23 38 325 274 274 318 305 300 301 304 286 273 271 270 290 311 324 332 343 181 175 153 167 156 200 162 150 212 212 268 113 97 77 82 88 95 95 98
Height
1523 1522 1520 1517 1516 1514 1513 1512 1511 1510 1510 1510 1509 1509 1509 1509 1509 1508 1509 1510 1509 1510 1511 1511 1513 1515 1516 1515 1516 1515 1516 1521 1519 1515 1523 1523 1523 1525 1527 1529 1532 1533 1535 1539 1542
1522 1520 1518 1517 1515 1514 1512 1510 1508 1508 1507 1507 1507 1507 1507 1507 1507 1507 1508 1509 1509 1510 1511 1510 1511 1514 1516 1516 1517 1514 1519 1517 1515 1516 1520 1522 1524 1526 1527 1530 1533 1533 1536 1540 1544
1522 1520 1518 1516 1514 1512 1510 1508 1506 1505 1505 1504 1505 1505 1505 1506 1506 1505 1505 1507 1509 1511 1512 1511 1511 1514 1516 1516 1516 1515 1516 1513 1517 1518 1520 1521 1523 1525 1526 1529 1530 1532 1536 1541 1544
1521 1519 1517 1515 1513 1511 1509 1507 1504 1503 1502 1502 1502 1502 1503 1505 1507 1503 1503 1504 1508 1511 1512 1512 1512 1514 1514 1514 1514 1513 1512 1513 1517 1521 1522 1524 1526 1527 1527 1528 1531 1535 1538 1543 1545
1520 1518 1516 1513 1511 1509 1506 1504 1502 1501 1500 1500 1500 1500 1502 1503 1503 1503 1503 1503 1506 1509 1511 1512 1512 1512 1512 1512 1514 1513 1514 1516 1519 1521 1523 1525 1527 1525 1529 1528 1533 1536 1540 1543 1546
1519 1517 1514 1512 1509 1507 1504 1502 1500 1499 1498 1498 1498 1498 1500 1503 1500 1501 1503 1505 1507 1508 1510 1512 1513 1514 1511 1510 1512 1514 1516 1518 1520 1522 1524 1525 1528 1528 1531 1530 1533 1537 1541 1544 1547
1518 1515 1513 1510 1507 1504 1501 1499 1497 1496 1496 1496 1496 1496 1498 1498 1497 1498 1501 1504 1506 1508 1510 1511 1513 1514 1513 1511 1515 1515 1517 1518 1522 1523 1523 1524 1526 1528 1529 1531 1534 1538 1542 1544 1548
1516 1513 1511 1508 1505 1503 1500 1497 1495 1494 1493 1494 1494 1495 1494 1492 1493 1496 1498 1501 1504 1506 1510 1511 1512 1513 1513 1513 1514 1514 1517 1519 1520 1521 1523 1524 1522 1525 1528 1530 1534 1538 1541 1544 1547
1513 1511 1509 1506 1504 1502 1499 1497 1495 1493 1492 1492 1493 1494 1491 1489 1491 1493 1497 1499 1502 1505 1508 1509 1511 1512 1512 1511 1515 1515 1519 1520 1521 1520 1521 1523 1522 1523 1527 1530 1532 1536 1540 1543 1546
1511 1509 1506 1504 1502 1500 1498 1496 1494 1493 1493 1492 1492 1496 1490 1489 1489 1490 1492 1496 1500 1503 1508 1509 1510 1508 1509 1511 1519 1515 1516 1516 1517 1517 1520 1522 1520 1521 1525 1528 1529 1533 1537 1541 1545
1509 1506 1504 1503 1501 1499 1498 1496 1497 1495 1492 1491 1490 1488 1486 1487 1487 1488 1489 1493 1498 1501 1501 1505 1506 1506 1502 1499 1503 1506 1508 1512 1513 1516 1519 1518 1517 1516 1521 1526 1527 1529 1533 1537 1540
1507 1504 1502 1501 1500 1499 1499 1498 1500 1502 1492 1486 1485 1483 1483 1485 1487 1485 1487 1491 1493 1494 1498 1504 1502 1496 1498 1503 1505 1506 1509 1512 1515 1515 1518 1515 1512 1512 1516 1519 1523 1526 1528 1532 1537
1506 1504 1501 1500 1499 1499 1499 1500 1499 1498 1495 1484 1482 1481 1481 1481 1482 1481 1484 1485 1486 1490 1491 1493 1493 1497 1499 1504 1506 1504 1507 1509 1511 1515 1514 1515 1509 1512 1512 1517 1522 1524 1526 1530 1532
1505 1503 1501 1499 1501 1499 1499 1499 1498 1498 1496 1486 1482 1481 1481 1480 1479 1476 1479 1483 1484 1485 1491 1491 1491 1494 1497 1498 1498 1504 1501 1503 1509 1512 1515 1513 1514 1506 1504 1511 1515 1517 1521 1525 1528
1505 1502 1500 1498 1499 1499 1501 1499 1498 1498 1505 1486 1483 1483 1481 1480 1478 1472 1475 1478 1477 1482 1485 1487 1490 1493 1494 1493 1495 1499 1497 1501 1506 1511 1513 1515 1517 1495 1501 1505 1505 1507 1512 1517 1522
1505 1502 1500 1500 1500 1500 1500 1499 1499 1502 1505 1489 1484 1483 1479 1476 1475 1473 1474 1476 1476 1479 1482 1483 1488 1487 1487 1491 1492 1494 1499 1507 1509 1507 1517 1506 1508 1491 1496 1490 1492 1500 1506 1511 1516
1506 1504 1502 1501 1502 1500 1499 1499 1501 1505 1497 1494 1490 1485 1483 1479 1473 1472 1471 1473 1472 1483 1484 1485 1485 1485 1486 1490 1492 1492 1499 1518 1524 1522 1519 1510 1513 1488 1479 1480 1482 1487 1493 1501 1508
1507 1506 1504 1503 1502 1500 1499 1501 1510 1506 1502 1496 1492 1485 1483 1480 1475 1473 1472 1473 1475 1472 1478 1485 1494 1482 1482 1482 1489 1492 1492 1507 1530 1523 1511 1511 1505 1484 1474 1475 1478 1482 1487 1494 1500
1506 1506 1505 1504 1502 1500 1500 1506 1515 1513 1509 1503 1493 1489 1484 1482 1484 1474 1474 1473 1473 1473 1477 1485 1481 1479 1479 1481 1484 1492 1497 1488 1504 1516 1511 1496 1489 1477 1470 1474 1476 1478 1482 1486 1490
1506 1506 1506 1505 1503 1501 1501 1513 1513 1513 1510 1505 1501 1499 1494 1489 1481 1476 1474 1479 1480 1476 1477 1476 1485 1476 1475 1480 1484 1482 1484 1502 1499 1516 1519 1499 1502 1484 1470 1471 1472 1473 1475 1478 1482
1506 1506 1507 1505 1505 1505 1509 1514 1513 1513 1511 1507 1505 1501 1499 1497 1494 1484 1482 1487 1484 1478 1478 1474 1477 1482 1480 1476 1476 1486 1486 1488 1485 1495 1502 1505 1487 1470 1469 1471 1469 1468 1468 1473 1478
1506 1507 1507 1506 1509 1514 1514 1518 1517 1514 1512 1510 1508 1506 1504 1500 1493 1487 1486 1485 1487 1484 1477 1476 1471 1478 1476 1476 1476 1469 1474 1477 1488 1503 1493 1485 1476 1467 1470 1470 1468 1467 1468 1472 1478
1507 1509 1508 1506 1510 1514 1517 1517 1518 1516 1515 1512 1511 1511 1508 1504 1500 1494 1490 1489 1489 1487 1485 1479 1476 1479 1478 1478 1477 1473 1472 1471 1475 1477 1486 1493 1479 1468 1469 1469 1469 1469 1471 1471 1475
1509 1509 1511 1510 1516 1518 1519 1521 1519 1519 1518 1517 1515 1513 1510 1506 1505 1499 1495 1490 1490 1488 1485 1481 1476 1470 1470 1465 1464 1474 1470 1473 1472 1480 1480 1478 1473 1467 1466 1469 1471 1472 1474 1475 1477
1511 1517 1518 1517 1517 1519 1520 1523 1521 1520 1521 1520 1516 1516 1516 1511 1506 1502 1501 1495 1489 1490 1485 1483 1475 1475 1468 1467 1465 1463 1465 1470 1473 1469 1475 1472 1472 1467 1466 1471 1475 1477 1477 1479 1481
1516 1518 1519 1521 1520 1520 1523 1523 1523 1523 1523 1521 1519 1517 1516 1515 1514 1512 1509 1504 1497 1492 1489 1488 1476 1477 1466 1466 1463 1467 1469 1468 1469 1475 1472 1475 1467 1473 1475 1477 1479 1479 1478 1480 1482
1518 1519 1520 1522 1522 1520 1521 1522 1523 1524 1522 1521 1520 1518 1515 1514 1512 1510 1508 1506 1503 1504 1499 1493 1487 1480 1467 1465 1466 1473 1473 1470 1472 1474 1473 1473 1470 1478 1480 1484 1485 1484 1483 1483 1484